Location: Aranbee
(34.0885°N, 118.2342°W)
Time: 23:10:55
(UTC+00:00)

Vanguard 2 - All Passes

Search period start: 25 November 2020 00:00
Search period end: 05 December 2020 00:00
Orbit: 554 x 2937 km, 32.9° (Epoch: 25 November)

Date Brightness Start Highest point End Pass type
(mag) Time Alt. Az. Time Alt. Az. Time Alt. Az.
25 Nov - 01:36:22 10° WSW 01:40:41 19° SSW 01:46:25 10° SSE visible
25 Nov - 17:20:54 10° SSW 17:25:23 23° SSE 17:28:54 10° ESE daylight
25 Nov - 19:29:08 10° WSW 19:33:26 61° S 19:37:22 10° E daylight
25 Nov - 21:37:30 10° W 21:41:26 70° S 21:46:15 10° ESE daylight
25 Nov - 23:45:27 10° W 23:49:39 33° SSW 23:55:38 10° SE daylight
26 Nov - 01:56:04 10° SW 01:58:42 12° SSW 02:01:46 10° S visible
26 Nov - 15:32:26 10° S 15:34:31 11° SSE 15:36:23 10° SE daylight
26 Nov - 17:38:08 10° SW 17:43:14 33° SSE 17:47:05 10° E daylight
26 Nov - 19:47:00 10° WSW 19:51:17 72° S 19:55:16 10° E daylight
26 Nov - 21:55:23 10° W 21:59:17 58° S 22:04:08 10° ESE daylight
27 Nov - 00:03:40 10° WSW 00:07:34 24° SSW 00:12:48 10° SSE daylight
27 Nov - 15:47:44 10° SSW 15:52:30 18° SSE 15:56:12 10° ESE daylight
27 Nov - 17:55:42 10° WSW 18:01:05 45° SSE 18:05:05 10° E daylight
27 Nov - 20:04:54 10° W 20:09:08 77° S 20:13:09 10° E daylight
27 Nov - 22:13:17 10° W 22:17:07 44° SSW 22:21:54 10° ESE daylight
28 Nov - 00:22:20 10° WSW 00:25:29 16° SSW 00:29:24 10° SSE daylight
28 Nov - 16:04:21 10° SSW 16:10:28 25° SSE 16:14:49 10° ESE daylight
28 Nov - 18:13:28 10° WSW 18:18:56 58° SSE 18:22:59 10° E daylight
28 Nov - 20:22:49 10° W 20:27:00 73° S 20:31:02 10° E daylight
28 Nov - 22:31:18 10° W 22:34:56 32° SSW 22:39:27 10° SE daylight
29 Nov - 14:14:49 10° S 14:19:05 14° SSE 14:22:36 10° SE visible
29 Nov - 16:21:31 10° SW 16:28:24 35° SSE 16:33:01 10° E daylight
29 Nov - 18:31:22 10° WSW 18:36:48 70° S 18:40:50 10° E daylight
29 Nov - 20:40:45 10° W 20:44:50 63° S 20:48:52 10° ESE daylight
29 Nov - 22:49:30 10° WSW 22:52:45 22° SSW 22:56:41 10° SSE daylight
30 Nov - 14:30:21 10° SSW 14:37:08 20° SSE 14:42:06 10° ESE daylight
30 Nov - 16:39:02 10° SW 16:46:18 46° SSE 16:51:01 10° E daylight
30 Nov - 18:49:21 10° W 18:54:39 77° S 18:58:41 10° E daylight
30 Nov - 20:58:41 10° W 21:02:38 49° SSW 21:06:38 10° ESE daylight
30 Nov - 23:08:10 10° WSW 23:10:35 15° SSW 23:13:20 10° S daylight
01 Dec - 14:46:53 10° SSW 14:55:08 28° SSE 15:00:43 10° E daylight
01 Dec - 16:56:48 10° WSW 17:04:11 58° SSE 17:08:55 10° E daylight
01 Dec - 19:07:21 10° W 19:12:31 77° S 19:16:31 10° E daylight
01 Dec - 21:16:42 10° W 21:20:25 35° SSW 21:24:13 10° SE daylight
02 Dec - 12:56:53 10° S 13:03:09 15° SSE 13:08:11 10° ESE visible
02 Dec - 15:03:58 10° SW 15:13:08 37° SSE 15:18:58 10° E daylight
02 Dec - 17:14:44 10° WSW 17:22:04 69° S 17:26:46 10° E daylight
02 Dec - 19:25:21 10° W 19:30:22 71° S 19:34:19 10° ESE daylight
02 Dec - 21:34:52 10° W 21:38:09 24° SSW 21:41:32 10° SSE daylight
03 Dec - 13:12:21 10° SSW 13:21:14 22° SSE 13:27:41 10° ESE visible
03 Dec - 15:21:25 10° SW 15:31:05 47° SSE 15:36:59 10° E daylight
03 Dec - 17:32:45 10° W 17:39:57 77° S 17:44:35 10° E daylight
03 Dec - 19:43:21 10° W 19:48:11 58° SSW 19:52:05 10° ESE daylight
03 Dec - 21:53:25 10° WSW 21:55:51 16° SSW 21:58:22 10° S daylight
04 Dec - 11:27:20 10° SSE 11:28:32 10° SSE 11:29:43 10° SE visible
04 Dec - 13:28:45 10° SSW 13:39:17 30° SSE 13:46:22 10° E visible
04 Dec - 15:39:09 10° WSW 15:49:00 59° SSE 15:54:54 10° E daylight
04 Dec - 17:50:51 10° W 17:57:51 80° S 18:02:24 10° E daylight
04 Dec - 20:01:23 10° W 20:05:57 44° SSW 20:09:43 10° SE daylight
